Weather in Dobrovice

Czech Republic     50°22′10″N   14°57′44″E
temp.,
°C
wind,
m/s
gust,
m/s
humid.,
%
clouds,
%
prec.,
mm/h
press.,
hPa
HPBL,
m
27 february, sat
sat2701:00+3nw379067 0.9 1033214
04:00+2nw389310 0.0 1033219
07:00+3nw488836 0.0 1034554
10:00+4nw5881100 0.0 1036744
13:00+6nw5773100 0.1 10371006
16:00+6nw4671100 0.0 1037946
19:00+4nnw367897 0.0 1038239
22:00+2nw368962 0.0 1038162
28 february, sun
sun2801:00+2nnw248646 0.0 1039114
04:00+2nnw117995 0.0 103822
07:000nw128373 0.0 103822
10:00+4nw237385 0.0 1037502
13:00+7wnw226043 0.0 1036627
16:00+8wnw23560 0.0 1034741
19:00+5nw23730 0.0 103534
22:00+3nnw23880 0.0 103543
1 march, mon
mon101:00+2nne11910 0.0 103622
04:00+1nne01910 0.0 103522
07:00+1e11910 0.0 103622
10:00+5wsw10760 0.0 1036246
13:00+9ese11650 0.0 1035436
16:00+9e12620 0.0 1034406
19:00+6ne12750 0.0 103522
22:00+5e11790 0.0 103522
2 march, tue
tue201:00+4ese12840 0.0 103522
04:00+3ese12860 0.0 103422
07:00+2e22890 0.0 103523
10:00+6ese22740 0.0 1034257
13:00+10ese23600 0.0 1034490
16:00+11e23600 0.0 1032416
19:00+7e23710 0.0 103222
22:00+6sse22770 0.0 103322
3 march, wed
wed301:00+4ese22800 0.0 103322
04:00+3se23840 0.0 103225
07:00+2ese128728 0.0 103222
10:00+6sse117366 0.0 1032286
13:00+10wsw136169 0.0 1030654
16:00+11w125416 0.0 1028565
19:00+7e12708 0.0 102722
22:00+6se12766 0.0 102722